Home   Weather   Volta Redonda   Past weeks

Flag for Brazil Past Weather in Volta Redonda, Rio de Janeiro, Brazil — Yesterday and Last 2 Weeks

Now
73 °F

More clouds than sun.


Feels Like: 75 °F
Forecast: 66 / 80 °F
Wind: 7 mph from West

Location: Galeao

Current Time: Dec 5, 2016 at 8:50:28 am

Latest Report: Dec 5, 2016 at 8:00 am


Visibility: N/A

Pressure: 29.74 "Hg

Humidity: 74%

Dew Point: 64 °F

Location of Volta RedondaLocation

Past Weather in Volta Redonda — Graph

°F

Volta Redonda Temperature Yesterday

Maximum temperature yesterday: 88 °F (at 2:00 pm)
Minimum temperature yesterday: 73 °F (at 1:00 am)
Average temperature yesterday: 77 °F

High & Low Weather Summary for the Past Weeks

 TemperatureHumidityPressure
High93 °F (Nov 28, 2:00 pm)94% (Dec 3, 11:00 pm)30.15 "Hg (Dec 3, 11:00 pm)
Low63 °F (Nov 21, 6:00 am)46% (Nov 28, 1:00 pm)29.59 "Hg (Dec 4, 3:00 pm)
Average76 °F72%29.93 "Hg
* Reported Nov 20 8:00 am — Dec 5 8:00 am, Volta Redonda, Weather by CustomWeather, © 2016

Note: Actual official high and low records may vary slightly from our data, if they occured in-between our weather recording intervals... More about our weather records

Advertising

Volta Redonda Weather History for the Previous 24 Hours

Scroll right to see more
 ConditionsComfort  
Time TempWeatherWind HumidityBarometerVisibility
8:00 am
Mon, Dec 5
73 °FMore clouds than sun.7 mph74%29.74 "HgN/A
7:00 am72 °FOvercast.5 mph78%29.71 "HgN/A
6:00 am72 °FOvercast.7 mph83%29.68 "HgN/A
5:00 am72 °FMostly cloudy.7 mph83%29.68 "HgN/A
4:00 am72 °FMostly cloudy.8 mph78%29.68 "HgN/A
3:00 am72 °FMostly cloudy.7 mph83%29.71 "HgN/A
2:00 am72 °FMostly cloudy.3 mph88%29.71 "HgN/A
1:00 am73 °FOvercast.6 mph83%29.71 "HgN/A
12:00 am72 °FMostly cloudy.2 mph88%29.74 "HgN/A
11:00 pm
Sun, Dec 4
73 °FMostly cloudy.6 mph83%29.71 "HgN/A
10:00 pm73 °FPassing clouds.5 mph83%29.71 "HgN/A
9:00 pm73 °FPartly cloudy.3 mph83%29.71 "HgN/A
8:00 pm73 °FLight rain. Passing clouds.10 mph83%29.68 "Hg4 mi
7:00 pm75 °FBroken clouds.18 mph69%29.68 "HgN/A
6:00 pm77 °FBroken clouds.18 mph65%29.65 "HgN/A
5:00 pm79 °FBroken clouds.29 mph61%29.62 "HgN/A
4:00 pm82 °FScattered showers. Broken clouds.12 mph70%29.59 "HgN/A
3:00 pm86 °FLight rain. Partly sunny.8 mph59%29.59 "Hg5 mi
2:00 pm88 °FPartly sunny.9 mph55%29.62 "HgN/A
1:00 pm86 °FPartly sunny.5 mph55%29.65 "HgN/A
12:00 pm82 °FPartly sunny.3 mph62%29.65 "HgN/A
11:00 am81 °FPartly sunny.6 mph70%29.68 "HgN/A
10:00 am79 °FPartly sunny.8 mph79%29.65 "HgN/A
9:00 am79 °FPartly sunny.3 mph79%29.65 "HgN/A
8:00 am75 °FPartly sunny.5 mph89%29.65 "HgN/A
Weather by CustomWeather, © 2016

See weather overviewHow to use our weather pages